Flag for U.S.A. Weather past 2 weeks in Virginia Beach, Virginia, U.S.A.

Now
82 °F

Partly sunny.


Feels Like: 86 °F
Forecast: 72 / 85 °F
Wind: 7 mph from North

Location: Virginia Beach - Oceana

Current Time: Sep 1, 2015 at 10:48:54 AM

Latest Report: Sep 1, 2015 at 9:56 AM


Visibility: 10 mi

Pressure: 30.08 "Hg

Humidity: 70%

Dew point: 71 °F

Location of Virginia BeachLocation

Historic Weather in Virginia Beach — Graph

°F

Virginia Beach temperature yesterday

Maximum temperature yesterday: 80 °F (at 9:56 AM)
Minimum temperature yesterday: 75 °F (at 6:56 AM)
Average temperature yesterday: 77 °F

Past Weeks' High & Low Weather Summary

 TemperatureHumidityPressure
High91 °F (Aug 20, 1:56 PM)91% (Sep 1, 7:03 AM)30.24 "Hg (Sep 1, 7:03 AM)
Low62 °F (Aug 29, 6:56 AM)37% (Aug 28, 1:56 PM)29.87 "Hg (Aug 24, 7:56 PM)
Average79 °F67%30.03 "Hg
* Reported Aug 17 9:56 AM — Sep 1 9:56 AM, Virginia Beach, Weather by CustomWeather, © 2015

Note: Actual official high and low records may vary slightly from our data, if they occured in-between our weather recording intervals... More about our weather records

Advertising

Virginia Beach weather history for previous 24 hours

 ConditionsComfort  
Time TempWeatherWind HumidityBarometerVisibility
9:56 AM
Tue, Sep 1
82 °FPartly sunny.7 mph70%30.08 "Hg10 mi
8:56 AM82 °FBroken clouds.7 mph70%30.06 "Hg10 mi
7:56 AM76 °FBroken clouds.No wind88%30.05 "Hg10 mi
7:03 AM74 °FMostly cloudy.No wind91%30.04 "Hg10 mi
5:56 AM73 °FPassing clouds.No wind84%30.04 "Hg10 mi
4:56 AM75 °FMostly cloudy.No wind88%30.03 "Hg10 mi
3:56 AM74 °FPartly cloudy.No wind88%30.04 "Hg10 mi
2:56 AM73 °FPassing clouds.No wind88%30.04 "Hg10 mi
1:56 AM73 °FPassing clouds.3 mph88%30.06 "Hg10 mi
12:56 AM73 °FPassing clouds.No wind84%30.07 "Hg10 mi
10:56 PM
Mon, Aug 31
75 °FOvercast.5 mph85%30.08 "Hg10 mi
9:56 PM75 °FPartly cloudy.No wind82%30.08 "Hg10 mi
8:56 PM76 °FPartly cloudy.No wind80%30.08 "Hg10 mi
7:56 PM77 °FBroken clouds.6 mph77%30.08 "Hg10 mi
6:56 PM77 °FPartly sunny.5 mph77%30.08 "Hg10 mi
4:56 PM79 °FMostly cloudy.5 mph65%30.10 "Hg10 mi
3:56 PM79 °FMostly cloudy.3 mph72%30.11 "Hg10 mi
2:56 PM79 °FPartly sunny.5 mph74%30.10 "Hg10 mi
1:56 PM76 °FLight rain. Partly sunny.6 mph85%30.09 "Hg10 mi
12:56 PM75 °FLight rain. Overcast.6 mph85%30.13 "Hg6 mi
11:56 AM76 °FLight rain. Mostly cloudy.9 mph82%30.15 "Hg7 mi
10:56 AM78 °FLight rain. Overcast.9 mph71%30.14 "Hg10 mi
Weather by CustomWeather, © 2015

See weather overviewHow to use our weather pages